Weather History for LIPK - December, 2013

Change the Weather History Date:

Wednesday, December 25, 2013

  Actual Average Record
Temperature  
Mean Temperature 48 °F -  
Max Temperature 64 °F 44 °F 64 °F (2013)
Min Temperature 32 °F 30 °F 19 °F (2001)
Degree Days  
Heating Degree Days 17    
Moisture  
Dew Point 44 °F    
Average Humidity 61    
Maximum Humidity 83    
Minimum Humidity 43    
Precipitation  
Precipitation 0.01 in - - ()
Sea Level Pressure  
Sea Level Pressure 29.74 in    
Wind  
Wind Speed 7 mph ()    
Max Wind Speed 18 mph    
Max Gust Speed 25 mph    
Visibility 6.1 miles    
Events Rain    
Averages and records for this station are not official NWS values.
T = Trace of Precipitation, MM = Missing Value Source: Averaged Metar Reports

Daily Weather History Graph

Daily Weather History Graph

Search for Another Location

Airport or City:

Trip Planner

Search our weather history database for the weather conditions in past years. The results will help you decide how hot, cold, wet, or windy it might be!

Date:

Astronomy

Dec. 25, 2013 Rise Set
Actual Time 7:45 AM CET 4:38 PM CET
Civil Twilight 7:12 AM CET 5:11 PM CET
Nautical Twilight 6:35 AM CET 5:48 PM CET
Astronomical Twilight 6:00 AM CET 6:23 PM CET
Moon No Moon Rise 11:45 AM CET (12/25)
Length of Visible Light 9h 58m
Length of Day
8h 52m
Waning Gibbous, 51% of the Moon is Illuminated
Dec 25
Waning Gibbous
Dec 25
Last Quarter
Jan 1
New
Jan 8
First Quarter
Jan 16
Full

Hourly Weather History & Observations

Time (CET) Temp. Dew Point Humidity Pressure Visibility Wind Dir Wind Speed Gust Speed Precip Events Conditions
1:00 AM 42 °F 39 °F 83% 29.99 in - SSE 4.6 mph - -  
4:00 AM 51 °F 45 °F 72% 29.91 in - ESE 3.5 mph - -  
7:00 AM 50 °F 43 °F 68% 29.85 in - East 4.6 mph - -  
8:00 AM 51.8 °F 42.8 °F 71% 29.83 in 6.2 mi ESE 8.1 mph - N/A   Scattered Clouds
8:50 AM 53.6 °F 44.6 °F 72% 29.83 in 6.2 mi ESE 4.6 mph - N/A   Scattered Clouds
9:50 AM 53.6 °F 44.6 °F 72% 29.80 in 6.2 mi East 5.8 mph - N/A   Scattered Clouds
10:00 AM 54 °F 44 °F 60% 29.83 in - ESE 3.5 mph - -  
10:50 AM 59.0 °F 44.6 °F 59% 29.80 in 6.2 mi SSW 13.8 mph 25.3 mph N/A   Scattered Clouds
11:50 AM 64.4 °F 50.0 °F 59% 29.77 in 6.2 mi SSE 12.7 mph 24.2 mph N/A   Scattered Clouds
12:50 PM 60.8 °F 44.6 °F 55% 29.74 in 6.2 mi South 17.3 mph - N/A   Scattered Clouds
1:00 PM 61 °F 44 °F 43% 29.73 in - South 18.4 mph - -  
1:50 PM 59.0 °F 44.6 °F 59% 29.71 in 6.2 mi SSE 5.8 mph - N/A   Scattered Clouds
2:50 PM 60.8 °F 44.6 °F 55% 29.68 in 6.2 mi South 12.7 mph - N/A   Scattered Clouds
3:50 PM 59.0 °F 44.6 °F 59% 29.65 in 5.0 mi South 12.7 mph - N/A Rain Light Rain
4:00 PM 60 °F 45 °F 46% 29.67 in - South 11.5 mph - -  
5:50 PM 57.2 °F 44.6 °F 63% 29.62 in 6.2 mi SSE 5.8 mph - N/A   Mostly Cloudy
6:50 PM 59.0 °F 44.6 °F 59% 29.59 in 6.2 mi SSE 12.7 mph - N/A   Scattered Clouds
7:00 PM 59 °F 45 °F 49% 29.60 in - SSE 12.7 mph - -  
7:50 PM 59.0 °F 44.6 °F 59% 29.59 in 6.2 mi SSE 12.7 mph - N/A   Scattered Clouds
10:00 PM 59 °F 46 °F 51% 29.56 in - ESE 13.8 mph - -